CATSAT-1

Last updated on Tue Apr 13 2021 00:02:13 GMT+0000 (Coordinated Universal Time)

1 44033U 98067PZ 21102.52173143 .03148828 12044-4 93890-3 0 9997 2 44033 51.6349 214.6392 0009094 323.2962 36.7435 16.26195910125613

Satellite not in orbit